Location: LDNL
(36.4545°S, 141.6685°E)
Time: 08:24:52
(UTC+11:00)

Courier 1B - Pass Details

Date: 11 February 2023
Orbit: 962 x 1209 km, 28.3° (Epoch: 21 March)

Event Time Altitude Azimuth Distance (km) Brightness Sun altitude
Rises 23:42:10 0° 292° (WNW) 3,747 10.7 -31.5°
Reaches altitude 10° 23:44:56 10° 299° (WNW) 2,830 10.0 -31.8°
Enters shadow 23:46:41 18° 306° (NW) 2,295 9.4 -32.0°
